| time (UTC) | temp F | wind direction | speed knots | gust knots | rain 1hr in | rain 24hr in | rain mn in | humidity % | barometer mb |
| 20260906021537 | 81 | 28 | 6.1 | 11.3 | 0.00 | 0.00 | 0.00 | 39 | 1012.1 |
| 20260906020044 | 81 | 32 | 6.1 | 12.2 | 0.00 | 0.00 | 0.00 | 39 | 1011.7 |
| 20260906014549 | 81 | 40 | 3.5 | 5.2 | 0.00 | 0.00 | 0.00 | 39 | 1011.5 |
| 20260906013035 | 81 | 28 | 3.5 | 5.2 | 0.00 | 0.00 | 0.00 | 39 | 1011.2 |
| 20260906011540 | 80 | 18 | 3.5 | 4.3 | 0.00 | 0.00 | 0.00 | 39 | 1011.2 |
| 20260906010034 | 81 | 14 | 2.6 | 4.3 | 0.00 | 0.00 | 0.00 | 39 | 1010.9 |
| 20260906004538 | 82 | 14 | 4.3 | 6.1 | 0.00 | 0.00 | 0.00 | 39 | 1010.8 |
| 20260906003046 | 84 | 23 | 3.5 | 5.2 | 0.00 | 0.00 | 0.00 | 39 | 1010.7 |
| 20260906001533 | 85 | 28 | 3.5 | 7.0 | 0.00 | 0.00 | 0.00 | 39 | 1010.5 |
| 20260906000033 | 86 | 17 | 3.5 | 7.0 | 0.00 | 0.00 | 0.00 | 39 | 1010.8 |
| 20260905234532 | 88 | 17 | 4.3 | 7.8 | 0.00 | 0.00 | 0.00 | 39 | 1010.8 |
| 20260905233032 | 89 | 26 | 4.3 | 8.7 | 0.00 | 0.00 | 0.00 | 39 | 1010.8 |
| 20260905231536 | 90 | 24 | 5.2 | 7.8 | 0.00 | 0.00 | 0.00 | 39 | 1010.8 |
| 20260905230031 | 90 | 20 | 5.2 | 7.8 | 0.00 | 0.00 | 0.00 | 39 | 1010.8 |
| 20260905224533 | 90 | 10 | 3.5 | 9.6 | 0.00 | 0.00 | 0.00 | 39 | 1010.6 |
| 20260905223029 | 91 | 26 | 5.2 | 9.6 | 0.00 | 0.00 | 0.00 | 39 | 1010.4 |
| 20260905221529 | 91 | 329 | 5.2 | 11.3 | 0.00 | 0.00 | 0.00 | 39 | 1010.6 |
| 20260905220028 | 90 | 9 | 5.2 | 7.8 | 0.00 | 0.00 | 0.00 | 39 | 1010.5 |
| 20260905214527 | 90 | 13 | 5.2 | 8.7 | 0.00 | 0.00 | 0.00 | 39 | 1010.6 |
| 20260905213038 | 91 | 350 | 7.0 | 11.3 | 0.00 | 0.00 | 0.00 | 39 | 1010.6 |
| 20260905211531 | 92 | 12 | 7.0 | 10.4 | 0.00 | 0.00 | 0.00 | 39 | 1010.5 |
| 20260905210026 | 92 | 9 | 7.0 | 12.2 | 0.00 | 0.00 | 0.00 | 39 | 1010.6 |
| 20260905204524 | 93 | 336 | 6.1 | 9.6 | 0.00 | 0.00 | 0.00 | 39 | 1010.7 |
| 20260905203024 | 93 | 5 | 9.6 | 12.2 | 0.00 | 0.00 | 0.00 | 39 | 1010.9 |
| 20260905201522 | 93 | 351 | 9.6 | 13.0 | 0.00 | 0.00 | 0.00 | 39 | 1011.1 |
| 20260905200020 | 93 | 319 | 6.1 | 11.3 | 0.00 | 0.00 | 0.00 | 39 | 1011.0 |
| 20260905194520 | 93 | 355 | 6.1 | 11.3 | 0.00 | 0.00 | 0.00 | 39 | 1011.1 |
| 20260905193019 | 92 | 343 | 5.2 | 11.3 | 0.00 | 0.00 | 0.00 | 39 | 1011.1 |
| 20260905191519 | 93 | 319 | 3.5 | 10.4 | 0.00 | 0.00 | 0.00 | 39 | 1011.2 |
| 20260905190016 | 94 | 336 | 4.3 | 9.6 | 0.00 | 0.00 | 0.00 | 39 | 1011.3 |
| 20260905184512 | 93 | 330 | 5.2 | 10.4 | 0.00 | 0.00 | 0.00 | 39 | 1011.5 |
| 20260905183008 | 93 | 344 | 3.5 | 9.6 | 0.00 | 0.00 | 0.00 | 39 | 1011.7 |
| 20260905181505 | 93 | 323 | 6.1 | 9.6 | 0.00 | 0.00 | 0.00 | 39 | 1011.8 |
| 20260905174556 | 91 | 339 | 6.1 | 10.4 | 0.00 | 0.00 | 0.00 | 39 | 1012.1 |
| 20260905173052 | 91 | 331 | 4.3 | 7.8 | 0.00 | 0.00 | 0.00 | 39 | 1012.1 |
| 20260905171549 | 90 | 339 | 3.5 | 8.7 | 0.00 | 0.00 | 0.00 | 39 | 1012.2 |
| 20260905170053 | 90 | 350 | 4.3 | 8.7 | 0.00 | 0.00 | 0.00 | 39 | 1012.3 |
| 20260905164546 | 90 | 330 | 3.5 | 7.8 | 0.00 | 0.00 | 0.00 | 39 | 1012.4 |
| 20260905163042 | 89 | 335 | 5.2 | 7.8 | 0.00 | 0.00 | 0.00 | 39 | 1012.5 |
| 20260905161541 | 89 | 329 | 2.6 | 5.2 | 0.00 | 0.00 | 0.00 | 39 | 1012.5 |
| 20260905160046 | 88 | 323 | 2.6 | 3.5 | 0.00 | 0.00 | 0.00 | 39 | 1012.5 |
| 20260905154542 | 89 | 321 | 2.6 | 7.0 | 0.00 | 0.00 | 0.00 | 39 | 1012.5 |
| 20260905153039 | 89 | 291 | 3.5 | 6.1 | 0.00 | 0.00 | 0.00 | 39 | 1012.4 |
| 20260905151536 | 88 | 267 | 2.6 | 6.1 | 0.00 | 0.00 | 0.00 | 39 | 1012.4 |
| 20260905150035 | 87 | 264 | 3.5 | 6.1 | 0.00 | 0.00 | 0.00 | 39 | 1012.2 |
| 20260905144535 | 86 | 251 | 3.5 | 4.3 | 0.00 | 0.00 | 0.00 | 39 | 1012.0 |
| 20260905143026 | 84 | 228 | 2.6 | 4.3 | 0.00 | 0.00 | 0.00 | 39 | 1012.0 |
| 20260905141521 | 82 | 219 | 1.7 | 3.5 | 0.00 | 0.00 | 0.00 | 39 | 1012.1 |
| 20260905140020 | 83 | 219 | 1.7 | 4.3 | 0.00 | 0.00 | 0.00 | 39 | 1012.3 |
| 20260905134520 | 82 | 216 | 2.6 | 4.3 | 0.00 | 0.00 | 0.00 | 39 | 1012.2 |
| 20260905133014 | 80 | 215 | 0.0 | 1.7 | 0.00 | 0.00 | 0.00 | 39 | 1012.3 |
| 20260905131516 | 79 | 215 | 0.0 | 1.7 | 0.00 | 0.00 | 0.00 | 39 | 1012.2 |
| 20260905130005 | 77 | 215 | 0.9 | 2.6 | 0.00 | 0.00 | 0.00 | 39 | 1012.2 |
| 20260905124501 | 76 | 215 | 0.0 | 0.0 | 0.00 | 0.00 | 0.00 | 39 | 1012.1 |
| 20260905123104 | 74 | 215 | 0.0 | 0.9 | 0.00 | 0.00 | 0.00 | 39 | 1012.0 |
| 20260905121556 | 74 | 215 | 0.9 | 1.7 | 0.00 | 0.00 | 0.00 | 39 | 1012.0 |
| 20260905114541 | 73 | 215 | 0.0 | 0.0 | 0.00 | 0.00 | 0.00 | 39 | 1011.4 |
| 20260905113037 | 73 | 215 | 0.9 | 3.5 | 0.00 | 0.00 | 0.00 | 39 | 1011.4 |
| 20260905111533 | 73 | 215 | 0.9 | 2.6 | 0.00 | 0.00 | 0.00 | 39 | 1011.2 |
| 20260905110033 | 73 | 215 | 0.0 | 1.7 | 0.00 | 0.00 | 0.00 | 39 | 1011.1 |
| 20260905104530 | 73 | 215 | 0.9 | 2.6 | 0.00 | 0.00 | 0.00 | 39 | 1011.1 |
| 20260905103029 | 73 | 215 | 1.7 | 3.5 | 0.00 | 0.00 | 0.00 | 39 | 1011.2 |
| 20260905101539 | 73 | 215 | 0.9 | 1.7 | 0.00 | 0.00 | 0.00 | 39 | 1011.2 |
| 20260905100028 | 73 | 215 | 0.9 | 1.7 | 0.00 | 0.00 | 0.00 | 39 | 1011.3 |
| 20260905094525 | 73 | 215 | 1.7 | 2.6 | 0.00 | 0.00 | 0.00 | 39 | 1011.3 |
| 20260905093025 | 73 | 215 | 0.0 | 1.7 | 0.00 | 0.00 | 0.00 | 39 | 1011.4 |
| 20260905091525 | 74 | 215 | 1.7 | 3.5 | 0.00 | 0.00 | 0.00 | 39 | 1011.3 |
| 20260905090023 | 74 | 215 | 1.7 | 2.6 | 0.00 | 0.00 | 0.00 | 39 | 1011.5 |
| 20260905084522 | 74 | 215 | 1.7 | 5.2 | 0.00 | 0.00 | 0.00 | 39 | 1011.5 |
| 20260905083027 | 74 | 198 | 2.6 | 7.0 | 0.00 | 0.00 | 0.00 | 39 | 1011.5 |
| 20260905081521 | 73 | 149 | 0.0 | 0.9 | 0.00 | 0.00 | 0.00 | 39 | 1011.5 |
| 20260905080020 | 73 | 149 | 0.0 | 0.0 | 0.00 | 0.00 | 0.00 | 39 | 1011.7 |
| 20260905074518 | 74 | 149 | 0.0 | 0.0 | 0.00 | 0.00 | 0.00 | 39 | 1011.8 |
| 20260905073022 | 74 | 149 | 0.0 | 0.9 | 0.00 | 0.00 | 0.00 | 39 | 1011.8 |
| 20260905071515 | 75 | 149 | 0.0 | 0.0 | 0.00 | 0.00 | 0.00 | 39 | 1011.8 |
| 20260905070016 | 75 | 149 | 0.0 | 1.7 | 0.00 | 0.00 | 0.00 | 39 | 1011.8 |
| 20260905064521 | 75 | 149 | 1.7 | 4.3 | 0.00 | 0.00 | 0.00 | 39 | 1011.8 |
| 20260905063013 | 75 | 149 | 0.9 | 2.6 | 0.00 | 0.00 | 0.00 | 39 | 1011.7 |
| 20260905061512 | 75 | 149 | 0.0 | 1.7 | 0.00 | 0.00 | 0.00 | 39 | 1011.8 |
| 20260905060018 | 75 | 149 | 0.0 | 2.6 | 0.00 | 0.00 | 0.00 | 39 | 1011.8 |
| 20260905054507 | 77 | 148 | 0.0 | 1.7 | 0.00 | 0.00 | 0.00 | 39 | 1011.7 |
| 20260905053017 | 77 | 148 | 0.9 | 4.3 | 0.00 | 0.00 | 0.00 | 39 | 1011.6 |
| 20260905051503 | 77 | 111 | 0.9 | 3.5 | 0.00 | 0.00 | 0.00 | 39 | 1011.6 |
| 20260905050100 | 77 | 110 | 1.7 | 3.5 | 0.00 | 0.00 | 0.00 | 39 | 1011.5 |
| 20260905044605 | 77 | 58 | 0.9 | 1.7 | 0.00 | 0.00 | 0.00 | 39 | 1011.7 |
| 20260905043059 | 77 | 57 | 0.9 | 2.6 | 0.00 | 0.00 | 0.00 | 39 | 1011.8 |
| 20260905041559 | 78 | 57 | 0.9 | 2.6 | 0.00 | 0.00 | 0.00 | 39 | 1011.9 |
| 20260905040058 | 78 | 57 | 0.0 | 2.6 | 0.00 | 0.00 | 0.00 | 39 | 1011.9 |
| 20260905034557 | 79 | 57 | 0.9 | 1.7 | 0.00 | 0.00 | 0.00 | 39 | 1011.9 |
| 20260905033102 | 79 | 57 | 0.0 | 1.7 | 0.00 | 0.00 | 0.00 | 39 | 1011.9 |
| 20260905031559 | 78 | 57 | 0.9 | 2.6 | 0.00 | 0.00 | 0.00 | 39 | 1011.8 |
| 20260905030120 | 79 | 57 | 0.0 | 0.9 | 0.00 | 0.00 | 0.00 | 39 | 1011.7 |
| 20260905024558 | 79 | 57 | 0.0 | 1.7 | 0.00 | 0.00 | 0.00 | 39 | 1011.5 |
| 20260905023057 | 80 | 57 | 0.0 | 1.7 | 0.00 | 0.00 | 0.00 | 39 | 1011.4 |